User: anonymous   Login
Location: Unspecified
(0.0000°N, 0.0000°E)
Time: 02:04:38
(UTC+00:00)
Language:

Vela 3A - Orbit

View from above orbital plane
View from above orbital plane
View from above satellite
View from above satellite

Ground track
Ground track

The orbit data is extracted from the following two-line orbital elements,

1 01458U 65058A   15210.68280402 -.00000586  00000-0  00000+0 0  9990
2 01458 022.9666 011.2020 5098595 196.9647 359.5454 00.21459174 77709
Epoch (UTC): 29 July 2015 16:23:14
Eccentricity: 0.5098595
inclination: 22.9666°
perigee height: 51384 km
apogee height: 171555 km
right ascension of ascending node: 11.2020°
argument of perigee: 196.9647°
revolutions per day: 0.21459174
mean anomaly at epoch: 359.5454°
orbit number at epoch: 7770

The dashed part of the orbit path shows where the satellite is in the earth's shadow,  

DLR